Wind_Speed
16 18 22 24 24 23 23 23 23 20 18 19 19 18 18 18 19 19 18 18 16 18 18 19 20 18 16 18 15 15 18 18 19 21 21 20 19 21 23 22 22 24 24 24 26 28 28 29 29 28 28 28 27 26 25 24 23 22 22 22 23 23 22 21 20 22 24 23 22 21 21 21 19 17 16 15 14 13 12 12 12 11 10 10 9 8
17 22 24 24 23 21 20 20 22 21 19 21 21 19 18 18 18 18 18 18 18 18 16 14 18 19 18 19 17 16 18 18 20 21 21 20 19 20 22 23 23 24 25 26 27 29 29 29 29 28 29 29 28 27 25 24 24 23 23 22 23 23 22 21 20 21 24 23 22 22 21 21 19 17 16 15 15 13 12 12 12 11 10 9 9 9
20 25 24 21 20 21 20 20 20 21 21 21 21 19 18 17 16 17 18 19 19 19 16 15 17 21 22 21 20 20 20 19 21 23 22 20 21 21 21 22 25 26 26 27 29 29 29 28 29 29 30 29 29 28 26 25 25 24 24 23 23 24 22 21 21 21 23 23 23 22 21 21 20 18 17 16 15 13 12 13 12 11 10 9 8 9
20 21 22 21 19 20 21 21 20 20 21 21 21 20 18 17 17 15 15 19 21 18 16 16 18 20 22 21 21 21 19 18 22 23 21 20 21 20 18 19 23 27 27 28 29 30 30 29 29 30 30 30 30 29 27 26 26 26 25 24 24 24 24 22 21 21 23 23 24 23 21 22 22 20 19 17 16 14 13 13 12 11 10 9 8 8
22 16 16 20 21 21 21 21 21 20 20 21 22 22 19 17 18 19 16 15 19 20 19 18 19 18 20 23 23 22 21 20 21 22 20 20 21 19 20 22 23 25 27 28 29 30 30 30 30 30 30 30 30 29 28 27 26 26 25 24 24 25 25 24 22 21 24 25 25 25 24 24 24 23 21 18 17 15 14 13 13 12 10 10 9 8
24 18 14 17 20 23 23 21 22 22 20 19 20 23 22 18 17 19 19 18 18 21 22 22 18 14 17 24 26 24 23 23 23 24 23 22 22 22 25 28 26 26 26 27 29 30 30 30 30 29 29 31 30 28 28 27 26 25 25 24 24 25 26 26 25 23 23 25 26 26 25 25 25 24 22 20 17 16 15 14 13 13 11 10 10 9
23 21 18 18 18 21 24 24 21 21 21 19 16 17 20 22 20 19 19 18 18 18 18 21 18 13 16 21 24 25 25 26 29 29 27 24 23 23 26 28 26 26 26 25 28 32 32 31 31 30 30 30 30 28 26 27 27 26 25 24 24 25 27 27 27 25 24 24 25 26 26 25 23 20 19 19 18 17 17 15 14 13 12 11 10 9
19 21 21 20 19 20 23 25 22 20 21 20 16 12 14 18 20 21 21 19 18 18 18 21 20 18 18 19 20 26 28 28 30 30 29 28 24 23 25 27 25 26 26 26 27 31 32 30 30 31 30 30 30 28 27 27 28 27 25 24 24 25 26 27 28 27 25 24 24 25 25 25 21 19 19 19 19 18 18 16 15 14 13 12 10 10
15 19 22 22 21 20 22 22 21 21 22 20 16 14 13 12 14 17 20 21 20 18 20 21 19 16 17 18 17 22 29 30 28 28 30 30 25 24 26 26 25 26 28 27 28 31 32 30 29 30 30 30 30 29 27 27 28 27 25 24 25 26 26 27 28 28 26 25 24 24 24 24 23 22 22 22 21 20 19 18 16 15 14 13 11 10
14 15 18 21 23 22 20 20 19 21 22 19 17 16 15 12 11 12 14 19 21 19 19 19 18 14 13 18 18 19 26 30 29 30 34 31 26 24 27 27 26 27 29 28 28 31 31 30 30 29 29 30 30 29 28 28 29 28 27 25 25 26 26 26 28 28 28 27 26 25 24 24 24 25 25 24 23 21 20 19 17 16 14 13 13 11
19 16 15 19 24 22 19 18 19 20 19 17 16 18 18 15 12 12 12 15 16 16 19 21 21 16 12 16 20 19 23 27 31 36 37 34 29 25 27 29 29 29 30 29 29 30 30 31 30 28 28 29 30 30 29 29 30 29 28 26 25 26 25 25 27 29 29 28 28 27 25 24 24 25 26 25 24 23 22 20 18 17 16 14 14 13
20 21 17 16 20 22 20 18 18 18 17 18 17 17 18 16 14 14 14 14 11 10 17 22 24 22 16 17 19 18 18 21 27 33 36 34 30 26 27 30 31 31 31 30 30 29 29 30 30 28 28 29 30 30 30 30 31 30 29 27 25 26 25 25 26 28 30 29 29 28 26 25 24 25 26 26 25 24 22 20 19 18 17 16 14 13
20 24 21 15 15 20 22 19 19 19 19 21 20 18 16 13 11 11 11 12 11 12 16 19 21 24 23 22 23 22 17 15 19 25 30 33 28 25 27 28 29 30 29 30 31 31 31 30 29 29 29 29 30 31 31 30 31 31 30 28 27 25 25 25 25 27 29 29 29 30 28 26 25 25 25 25 25 24 22 21 20 19 19 18 16 14
18 21 24 22 17 18 22 21 19 21 22 22 22 20 16 10 7 8 7 8 11 14 17 19 19 20 23 24 26 28 24 16 17 21 28 32 27 25 27 27 27 28 27 28 30 31 31 30 29 30 29 29 30 31 31 31 31 31 31 29 27 25 25 25 25 26 28 28 28 29 29 28 27 26 26 25 24 23 23 23 22 20 20 19 18 16
14 15 21 26 23 19 23 24 18 17 21 23 22 20 19 16 11 8 7 7 10 14 17 20 19 16 18 18 20 28 29 21 16 18 27 31 27 26 28 27 27 28 25 26 30 32 31 31 31 31 30 29 29 30 32 33 32 32 31 28 27 27 26 26 25 25 26 26 26 28 30 30 28 28 27 25 24 23 23 24 23 22 20 20 19 18
14 14 14 20 25 23 24 26 22 17 19 21 23 22 22 21 17 14 13 13 14 13 13 17 19 18 18 15 14 20 25 26 20 16 22 28 27 26 29 29 28 30 29 27 29 31 30 30 32 31 29 27 28 29 31 32 32 32 31 28 26 27 27 27 26 24 24 24 25 25 28 29 29 29 28 26 25 23 23 23 24 23 21 20 20 20
12 16 14 12 18 24 24 25 25 24 21 17 21 26 24 21 20 18 17 20 19 12 9 15 18 18 17 16 17 18 20 25 24 18 18 24 28 29 30 31 29 30 31 28 29 31 30 30 31 30 28 27 28 28 29 30 30 30 30 27 26 26 27 28 27 25 24 24 24 24 25 28 29 30 29 27 26 24 23 23 23 23 22 21 21 21
12 17 17 12 11 19 23 22 23 25 25 21 19 21 20 20 22 20 15 13 14 9 8 14 17 16 15 14 16 20 22 24 26 25 21 20 26 29 28 29 28 27 26 24 26 29 29 31 31 30 30 28 27 26 27 27 27 29 30 27 25 26 28 28 28 26 25 25 25 24 24 26 28 28 29 27 26 25 24 23 23 23 22 22 22 22
12 17 19 14 12 14 17 23 25 25 28 29 24 18 17 18 20 21 15 9 9 8 7 12 17 16 15 13 14 19 23 23 24 28 26 21 21 24 26 28 27 25 23 22 25 27 28 30 30 29 28 28 27 26 25 25 25 27 28 27 25 26 28 28 28 28 27 26 25 24 24 24 25 26 27 27 27 27 26 24 23 23 22 22 22 22
10 14 19 16 12 13 12 19 25 25 25 25 28 30 26 20 18 22 21 15 11 7 7 11 13 13 15 13 11 15 20 21 21 25 28 27 24 24 27 30 29 26 24 25 27 27 26 27 28 27 27 29 29 28 27 26 26 28 27 25 25 26 28 29 29 29 28 27 26 25 24 24 25 25 26 26 27 28 27 25 24 23 22 22 23 23
11 12 19 21 15 13 13 15 19 22 21 21 25 31 29 21 19 19 22 23 18 10 6 7 8 11 16 16 14 12 14 20 23 24 26 28 28 27 26 28 29 26 25 28 30 28 25 26 27 26 26 29 30 30 29 27 28 31 31 27 24 26 28 29 30 30 29 28 28 26 25 24 24 24 25 26 27 27 27 26 24 23 23 23 23 23
12 12 18 23 19 14 13 14 14 18 20 22 25 27 26 23 19 16 15 22 23 17 12 8 7 10 10 11 16 16 14 17 22 24 25 26 28 29 27 27 28 25 26 31 34 31 26 26 28 27 25 27 29 30 30 29 29 31 32 29 25 25 27 28 29 29 28 28 29 28 26 25 24 24 25 26 27 27 27 26 25 24 23 24 24 24
13 12 15 22 22 19 18 18 19 19 18 22 25 25 24 25 26 19 12 17 21 20 20 16 12 12 8 7 11 16 16 14 16 20 22 23 25 28 28 28 27 26 28 33 36 34 30 27 27 27 25 26 28 27 26 28 28 25 26 28 27 25 25 26 27 27 27 27 28 28 27 27 26 26 26 26 27 27 26 26 26 25 24 24 24 24
15 14 15 21 24 24 26 25 24 21 17 18 23 25 24 25 28 26 19 18 19 19 20 17 11 15 15 9 5 8 13 11 11 15 18 21 23 24 27 29 29 29 30 33 35 34 30 27 25 26 25 24 26 26 24 25 25 22 23 25 27 26 24 24 25 26 26 26 27 28 28 28 27 27 27 27 27 27 26 25 26 26 25 25 25 25
13 10 12 17 15 15 22 24 21 21 19 18 21 25 25 25 27 29 25 21 21 21 20 15 12 18 18 10 4 4 10 10 10 11 14 18 21 22 23 26 27 31 33 34 34 32 29 28 26 26 27 23 23 24 24 25 25 24 24 24 26 28 25 23 24 24 24 25 26 27 27 28 28 28 28 28 27 27 26 26 26 26 26 25 25 25
13 9 11 14 11 9 11 11 10 12 13 14 18 21 24 25 25 26 25 22 21 23 24 18 14 18 17 11 7 7 9 8 7 8 10 14 18 18 20 24 25 28 34 33 31 31 30 27 23 25 27 24 22 23 25 27 27 27 27 25 25 28 28 25 23 23 23 23 25 27 27 27 28 28 28 28 27 27 26 26 26 26 26 26 26 26
14 14 16 17 17 18 16 9 6 10 14 13 15 18 19 19 19 20 22 26 24 23 26 25 16 13 13 9 7 10 12 11 6 5 6 8 12 12 14 22 27 28 31 31 28 30 31 26 22 23 26 25 24 25 27 29 30 29 28 26 24 27 29 27 24 22 21 21 24 26 26 27 27 27 27 27 27 27 27 27 27 26 26 26 26 27
14 17 20 20 22 24 26 21 16 16 18 17 18 20 20 19 19 20 19 22 20 15 20 24 18 17 15 7 4 3 8 12 9 4 2 6 12 12 8 12 21 26 30 31 28 27 29 27 23 21 23 24 23 24 26 29 32 31 29 27 25 27 30 29 26 23 21 20 22 24 24 25 26 26 27 27 27 27 26 27 28 27 26 26 26 27
14 17 19 21 23 24 26 26 23 21 20 19 21 24 25 23 21 20 20 23 21 18 22 24 18 20 20 10 6 1 7 8 11 5 2 4 9 9 4 4 12 18 22 28 29 28 28 26 23 21 23 25 24 24 25 26 29 31 31 29 28 29 30 30 28 24 21 20 21 22 22 23 24 26 26 26 27 27 26 27 27 27 27 26 27 27
15 18 18 19 23 24 24 23 23 22 20 21 21 23 25 24 22 21 21 23 23 23 28 28 19 17 19 14 12 6 5 8 13 6 5 10 16 15 11 8 11 14 14 20 27 28 27 26 26 25 26 26 25 25 24 23 26 31 33 32 30 29 30 31 31 26 22 20 20 21 21 22 23 24 25 26 27 27 27 27 26 27 27 27 27 26
14 18 17 17 22 24 23 22 22 22 22 23 23 23 24 25 24 24 22 22 23 22 23 26 24 20 19 15 13 11 5 2 4 2 3 11 15 16 14 10 9 13 12 14 21 26 28 28 27 27 26 25 24 23 20 19 22 27 32 33 32 30 30 32 32 28 23 20 20 20 21 21 21 22 24 25 26 26 27 27 26 26 27 27 26 26
13 15 15 16 20 22 20 20 20 21 22 26 27 25 24 25 25 24 22 21 22 20 20 24 27 25 22 17 15 16 12 9 7 5 4 7 11 10 11 13 7 9 11 14 17 21 26 27 26 25 24 24 25 24 22 21 21 23 28 33 34 33 32 32 33 30 25 22 21 20 21 21 21 21 21 23 24 25 26 27 26 26 27 27 26 26
13 14 15 15 18 21 19 18 19 18 18 22 26 26 25 27 27 26 25 23 21 21 22 23 23 23 21 19 16 17 17 16 15 14 11 9 12 12 2 9 6 3 5 8 12 17 21 23 25 26 25 25 25 25 26 26 25 23 25 30 33 35 35 33 33 32 28 25 23 21 21 21 21 21 20 20 21 23 25 27 27 26 26 26 26 26
17 16 16 15 17 18 17 18 20 18 15 16 19 20 21 24 27 28 29 25 22 23 23 22 21 19 17 17 19 20 21 21 20 18 16 13 11 12 9 4 1 1 4 6 12 18 20 20 22 22 23 24 23 23 25 27 27 26 27 31 34 36 36 35 34 34 30 27 25 22 22 23 22 21 21 20 20 21 23 25 27 27 26 26 27 27
21 19 19 18 17 18 18 17 16 15 16 16 15 16 17 19 22 28 32 30 25 24 25 26 25 22 19 19 23 25 27 29 27 22 19 19 17 15 15 13 9 6 5 6 12 16 16 16 17 16 18 21 21 22 25 25 26 27 30 34 34 35 35 35 36 36 32 29 28 25 23 24 23 22 22 21 22 21 21 23 25 26 27 27 28 28
24 22 22 21 19 18 17 16 13 12 16 17 16 17 17 17 19 23 27 30 28 24 25 29 29 27 26 24 20 22 29 35 32 22 19 24 28 25 24 22 18 14 12 9 13 16 15 16 15 13 15 18 20 22 24 24 24 26 30 32 31 31 33 33 35 38 36 32 31 28 25 24 24 24 24 23 23 23 22 23 24 26 27 28 28 28
28 27 25 21 20 19 19 19 17 16 18 19 18 16 14 16 21 22 22 25 26 22 23 30 31 28 28 27 24 24 29 33 30 21 20 28 33 33 32 29 24 21 18 15 15 17 18 18 16 14 14 17 19 22 24 24 24 26 30 32 30 30 31 31 33 38 38 35 32 30 28 26 25 26 25 25 24 24 24 24 24 25 27 28 29 29
27 31 30 23 20 20 20 17 15 14 15 17 17 15 11 12 18 24 24 23 24 22 23 29 31 31 32 35 36 34 32 33 30 24 25 30 33 34 35 32 30 28 25 22 20 20 20 21 20 19 18 17 18 20 23 25 26 27 29 31 31 31 32 31 33 36 38 36 34 32 29 28 27 27 27 26 25 25 25 25 25 26 27 28 28 28
22 29 32 29 24 21 19 16 13 13 15 16 14 13 14 13 15 20 22 21 22 27 30 28 27 31 38 42 42 40 36 33 30 26 27 31 31 32 34 33 32 32 30 28 27 25 24 23 22 22 20 19 18 18 19 23 27 29 30 30 30 31 31 31 32 35 36 35 34 33 31 29 29 28 28 27 26 26 26 26 27 27 28 28 28 27
16 22 29 33 31 26 21 19 17 17 18 18 12 7 9 14 14 15 15 15 19 28 34 33 30 32 37 40 41 39 35 32 30 30 34 36 34 32 33 33 33 33 31 30 30 29 27 25 24 23 22 21 20 18 19 21 26 30 31 30 31 32 32 32 32 33 34 34 35 35 33 32 31 29 28 28 29 28 27 27 28 29 29 29 29 28
14 17 25 35 36 30 23 20 20 18 17 18 15 7 8 13 13 12 12 13 18 24 29 32 35 36 38 37 35 34 34 35 35 37 40 39 35 33 33 32 32 32 30 29 28 29 28 27 25 25 24 23 22 21 21 21 25 31 33 32 32 32 30 30 30 30 32 34 35 36 34 33 32 30 30 31 31 31 29 28 28 29 30 31 30 29
10 11 19 30 32 26 21 21 22 18 16 19 17 11 12 15 13 13 15 16 17 20 22 27 32 37 40 37 32 31 35 39 40 40 40 34 30 33 34 32 31 32 30 28 27 27 28 28 27 27 26 25 23 22 22 23 26 33 36 35 35 33 29 27 28 29 31 33 34 35 34 34 33 33 33 34 34 34 32 30 29 30 31 32 31 31
8 7 10 19 23 21 19 21 18 13 13 17 17 14 15 15 12 13 16 16 15 16 19 22 26 30 33 34 31 29 33 40 43 45 42 33 28 31 35 33 32 32 31 30 27 26 28 29 29 28 28 27 24 23 23 24 27 33 36 35 35 33 31 30 30 29 30 31 32 33 33 34 35 36 36 37 37 37 34 32 31 30 31 32 33 33
7 5 7 10 14 16 18 17 12 8 10 12 10 11 14 14 12 14 17 17 17 18 19 21 23 24 25 27 27 27 31 38 44 47 45 37 29 29 32 32 33 32 32 32 29 27 27 28 28 29 29 28 27 26 26 26 28 32 36 36 33 33 35 35 33 31 31 30 31 32 33 34 37 38 39 39 39 38 36 33 32 31 31 32 33 34
7 5 8 11 10 12 16 15 11 9 10 10 7 8 11 13 13 15 17 17 19 20 19 19 20 21 24 26 27 28 31 37 42 44 43 39 33 30 30 32 33 32 32 32 30 29 27 26 26 28 29 29 29 29 29 31 32 34 37 37 36 36 39 39 36 34 33 31 30 31 33 35 37 38 39 40 41 39 37 35 33 32 31 32 33 34
10 9 11 14 15 15 17 18 17 16 14 13 12 12 14 15 16 16 17 18 20 20 20 20 19 20 23 26 28 29 31 35 38 38 37 36 35 33 32 33 34 34 34 34 32 30 28 26 25 27 29 29 29 28 30 34 36 37 38 40 40 41 42 42 39 37 35 32 31 31 32 35 37 38 39 41 42 40 37 35 34 33 32 32 32 33
11 9 10 12 16 17 15 15 18 20 18 16 17 18 18 19 20 20 19 20 21 21 21 22 20 19 22 25 28 30 32 34 34 32 31 32 33 33 34 35 36 36 36 36 34 32 29 27 25 26 28 29 27 27 31 35 38 38 39 42 43 44 44 44 41 39 37 35 33 32 33 35 36 37 39 41 41 40 38 36 35 34 33 33 33 33
13 12 11 12 14 15 15 17 21 23 22 20 20 20 20 21 23 24 24 24 25 24 24 24 23 21 21 23 26 29 32 34 33 32 31 30 29 30 32 33 33 34 36 37 35 33 31 28 26 27 28 27 25 26 29 33 36 38 39 42 43 44 45 44 42 40 39 38 36 35 34 35 35 37 39 40 40 39 37 35 34 34 34 34 33 33
14 14 13 14 15 13 13 17 21 21 20 19 17 18 20 22 25 27 27 27 27 26 26 26 24 22 21 21 23 27 30 31 30 30 31 30 28 28 28 27 26 30 34 35 34 33 31 28 26 26 26 25 24 25 27 30 33 36 39 40 41 42 44 45 43 41 40 40 39 38 37 36 36 38 39 40 39 38 36 34 34 33 33 32 31 30
13 15 15 16 18 16 15 17 20 20 20 19 18 19 22 25 28 28 28 27 27 26 26 26 24 22 21 20 20 24 28 29 28 28 28 27 26 26 25 24 24 28 33 36 35 32 30 27 26 26 25 24 24 26 28 29 31 35 38 39 40 42 44 45 44 43 42 42 41 41 40 38 38 39 40 40 39 37 35 34 33 31 29 27 26 25
12 14 16 18 20 20 19 20 20 22 23 21 20 20 23 25 27 28 26 25 24 24 23 22 22 21 20 20 20 21 24 26 26 26 26 26 26 25 25 24 23 24 29 33 34 31 27 25 25 25 25 24 24 28 31 31 32 35 37 38 40 43 45 46 45 43 43 43 44 43 41 39 38 39 40 40 38 36 34 33 31 28 26 24 23 23
Wind_Direction
211 215 219 220 221 220 222 224 230 239 247 256 258 254 248 243 241 237 238 241 221 205 212 216 212 206 207 222 235 228 218 210 204 208 210 207 206 202 201 202 196 193 198 201 197 197 201 200 201 202 203 204 202 199 197 196 197 196 198 199 193 190 188 187 189 186 184 182 180 179 176 176 174 168 168 167 167 166 161 161 162 164 161 152 144 136
215 222 225 224 225 224 228 231 235 242 248 255 260 263 261 253 249 242 234 238 232 219 218 216 210 207 208 223 235 225 213 207 205 211 210 208 210 205 200 201 201 198 195 199 202 200 201 202 201 202 204 206 205 202 199 198 199 198 200 202 197 195 192 188 192 189 186 184 180 180 178 178 178 173 173 174 174 172 166 165 165 166 164 158 150 143
218 228 230 228 229 228 231 235 237 241 245 252 255 258 261 257 257 251 237 235 235 227 222 213 214 218 214 220 232 226 220 214 208 216 220 215 215 208 202 203 205 203 195 196 203 201 201 202 202 204 206 207 208 205 201 200 202 200 202 205 200 199 197 192 194 191 187 184 180 181 181 180 182 178 179 180 177 175 172 170 167 166 166 162 157 150
220 232 232 229 230 229 233 235 238 241 242 245 247 249 251 250 258 257 239 234 234 231 230 218 213 224 223 219 226 231 235 223 211 221 227 222 223 217 216 220 211 205 197 195 203 202 200 204 205 207 207 206 209 209 204 202 203 203 204 206 203 201 199 197 197 192 188 185 183 184 183 183 185 184 184 183 179 177 176 174 170 169 168 164 161 158
229 237 236 231 229 230 233 233 235 239 241 240 239 244 247 246 252 258 260 253 238 232 241 237 217 218 218 207 211 224 231 228 218 223 225 221 225 218 217 227 216 204 198 196 204 204 201 205 207 209 210 207 209 211 207 205 206 207 207 208 207 203 201 200 200 196 191 189 187 187 186 186 189 189 188 187 183 178 176 176 173 171 173 171 166 163
236 237 235 231 227 228 232 232 232 234 241 243 238 240 245 250 254 257 267 273 256 236 234 239 231 222 217 207 208 215 217 218 214 221 229 223 221 215 212 219 213 201 199 198 204 205 202 206 209 212 213 210 211 212 209 208 209 211 211 210 210 207 204 201 201 200 197 195 193 192 191 192 194 192 189 189 186 182 180 180 177 175 175 176 172 165
239 235 233 234 229 227 230 231 231 230 237 243 242 240 241 248 255 258 262 266 267 256 238 236 236 233 232 224 217 212 211 213 208 216 234 226 217 217 209 210 209 200 199 201 205 204 202 207 211 213 215 213 212 213 211 210 211 213 213 212 212 211 208 204 203 203 202 200 200 198 197 199 200 195 192 192 191 188 187 184 181 180 179 178 177 171
235 232 231 232 232 231 229 228 228 226 234 239 239 245 243 243 247 252 257 258 261 267 261 250 241 231 233 236 227 213 207 210 210 214 226 224 220 221 211 206 207 202 201 202 205 204 203 207 211 214 216 215 214 215 213 212 213 215 214 212 212 214 213 208 206 206 204 203 204 202 202 203 201 195 196 198 198 196 193 190 187 187 184 181 183 181
232 230 231 230 231 234 231 229 227 225 233 237 237 246 252 250 248 247 249 250 252 259 260 254 247 237 232 233 229 211 198 200 210 213 214 221 229 228 218 209 204 204 206 206 204 204 204 206 210 214 217 217 216 217 216 214 216 217 217 214 212 215 215 212 210 209 207 205 206 206 205 204 200 196 197 200 202 201 199 197 194 192 190 185 187 190
239 230 230 230 231 232 232 232 228 228 233 235 237 245 252 255 258 255 247 243 245 249 251 247 243 247 247 238 225 208 200 200 205 207 208 221 235 233 222 213 203 203 208 208 204 202 204 206 209 214 218 217 217 219 218 217 218 219 219 216 213 215 216 213 211 211 210 207 206 208 208 206 202 200 201 203 203 203 202 202 200 197 195 190 189 194
250 248 239 231 232 232 233 233 230 231 232 230 234 241 249 252 250 259 261 248 243 241 242 241 241 246 254 248 232 216 215 211 203 204 211 221 230 229 223 214 206 205 206 207 206 204 205 207 208 213 218 217 216 219 221 219 219 221 221 219 215 216 217 215 211 212 213 210 208 209 209 207 205 204 206 207 207 206 204 203 203 201 199 196 193 194
254 255 248 233 232 232 233 235 233 232 227 226 234 236 241 244 235 243 253 249 247 241 235 234 238 243 246 245 243 238 229 214 205 207 212 218 222 220 215 211 207 207 208 207 207 208 208 208 206 209 215 216 213 216 220 221 221 222 222 221 218 216 217 216 212 211 214 213 210 211 211 208 206 207 210 212 212 210 207 205 205 204 203 201 198 196
247 248 245 240 234 227 229 231 227 228 225 224 229 229 231 233 223 227 235 236 243 242 235 231 231 238 244 241 241 249 243 214 213 218 213 214 219 218 215 213 211 211 210 209 210 211 210 207 205 205 210 213 211 212 217 220 222 223 223 223 222 218 217 217 213 211 214 215 213 212 213 211 209 210 212 214 215 213 210 209 208 206 205 206 203 200
238 236 234 237 237 225 224 225 221 220 221 219 218 218 220 224 224 221 222 232 246 244 234 230 230 236 242 241 235 238 242 232 225 222 213 213 221 226 226 225 221 217 213 213 214 212 210 209 208 208 209 210 209 210 215 220 221 222 223 224 223 220 219 219 216 213 214 216 215 213 214 214 212 212 214 216 217 216 213 212 212 210 207 207 208 205
251 238 224 224 229 225 220 223 224 219 219 220 216 217 222 223 230 233 223 222 240 251 236 222 226 233 237 238 229 227 234 237 233 222 213 215 223 229 228 227 225 221 217 215 213 212 213 213 211 211 210 208 207 208 214 220 221 222 223 222 222 221 220 220 219 216 215 216 216 215 215 216 215 214 216 218 219 218 216 215 216 215 211 209 210 210
275 262 238 224 222 220 218 219 221 227 231 223 212 218 225 223 232 247 251 252 253 259 246 223 222 229 234 238 227 220 225 228 231 227 211 210 216 220 218 219 220 217 220 222 217 215 217 215 212 212 210 209 210 210 212 218 220 222 223 221 219 220 221 222 222 220 217 217 217 216 216 217 217 216 217 217 219 219 217 217 218 219 217 214 213 214
294 275 273 270 235 220 218 217 214 219 229 224 210 217 225 225 233 245 255 265 269 270 255 239 233 223 224 233 226 217 216 219 222 221 211 207 211 212 211 215 215 215 223 228 221 218 218 215 213 210 209 210 211 210 210 215 219 221 223 222 217 217 220 222 223 222 219 218 219 218 217 217 218 218 218 217 219 220 219 219 220 221 220 219 218 218
322 296 275 288 267 227 217 217 217 220 227 233 223 214 217 224 232 244 256 259 258 261 254 250 248 228 214 218 219 214 212 214 214 213 212 207 207 211 213 214 216 218 225 222 213 214 217 216 214 210 208 209 210 209 209 214 218 221 224 223 217 216 218 220 222 222 221 219 219 219 218 218 219 219 220 219 218 220 221 220 220 222 222 222 223 223
314 305 277 274 286 258 226 216 218 218 223 234 242 233 221 221 224 230 241 251 246 249 250 248 253 246 228 213 207 212 214 213 209 208 209 204 200 204 203 203 208 217 223 216 209 212 217 217 217 214 210 210 210 208 208 212 218 222 225 223 218 217 219 222 223 223 221 220 220 220 219 219 220 220 220 220 219 220 222 220 220 222 223 223 225 226
287 300 282 269 287 292 255 225 218 212 209 223 244 254 251 247 238 225 224 235 245 251 251 244 245 245 242 237 218 206 207 209 208 208 209 208 204 201 201 204 210 217 221 220 217 217 215 215 216 215 213 214 213 208 206 210 214 218 221 221 218 216 217 220 223 223 221 220 220 220 219 219 220 220 220 221 220 221 222 222 220 221 222 223 224 226
275 283 275 267 282 292 256 225 220 222 218 214 228 245 249 247 250 242 227 224 230 245 254 247 247 235 231 240 240 216 202 207 211 211 213 213 209 207 206 210 215 216 214 218 223 222 215 210 212 214 215 216 213 210 208 210 213 217 220 220 217 216 216 217 220 222 221 220 220 220 219 219 220 220 219 220 222 222 222 223 223 221 222 223 224 226
278 267 269 269 275 276 245 222 226 238 241 232 225 232 236 231 237 248 232 219 222 233 240 245 267 251 230 237 238 225 215 215 211 211 215 214 211 211 208 208 217 217 208 212 222 226 221 214 209 211 218 218 214 213 212 214 217 217 217 217 215 214 216 218 220 222 220 219 221 221 219 219 219 220 220 220 222 223 222 223 224 223 223 224 225 227
277 256 265 267 262 262 254 247 254 260 263 254 238 234 236 229 227 235 235 223 220 223 231 239 254 255 265 296 252 216 210 218 209 207 213 212 212 214 210 207 214 216 207 209 220 228 228 224 215 211 216 220 220 219 217 217 219 213 209 213 215 213 216 220 222 223 222 220 220 221 220 220 219 220 221 221 222 223 223 223 224 224 224 225 228 229
267 251 259 265 265 268 260 256 260 260 267 268 250 245 251 242 232 232 237 243 239 228 222 225 241 250 255 290 295 197 197 218 216 207 211 212 211 212 213 210 209 210 209 210 218 226 228 228 224 216 213 216 221 223 220 218 215 208 204 210 214 212 214 220 222 224 223 221 220 221 221 221 220 219 220 221 221 223 224 224 223 223 224 225 228 231
259 251 258 261 265 266 255 254 258 251 254 263 252 247 254 258 248 235 231 244 253 248 236 225 225 234 241 266 304 192 192 210 219 213 210 212 210 208 212 215 211 209 208 209 216 223 227 232 231 222 216 216 221 224 224 220 214 210 207 208 211 211 211 217 223 225 224 221 220 221 221 222 221 220 219 221 222 222 223 225 224 223 223 224 227 232
259 267 268 264 257 244 241 248 254 259 270 269 254 246 248 255 252 238 233 244 252 252 256 259 240 224 231 250 251 224 210 206 210 212 207 210 211 205 206 211 212 208 204 206 216 223 225 228 227 221 219 221 223 225 226 221 215 213 211 209 211 212 210 213 221 228 227 223 221 220 221 221 221 221 220 220 222 222 222 225 225 223 223 224 226 230
263 271 264 267 265 259 266 288 308 309 308 289 268 265 263 264 266 259 249 244 243 245 251 257 255 241 242 250 252 242 225 213 211 209 201 199 201 201 207 210 209 209 205 202 209 219 221 222 222 222 223 223 224 226 227 223 218 215 213 211 211 212 211 212 219 227 228 225 224 223 221 221 221 221 221 220 222 223 223 225 227 225 223 224 226 229
263 266 257 261 267 265 270 282 292 295 294 285 275 275 279 284 291 297 286 265 263 271 257 247 242 245 250 262 288 248 192 195 206 207 211 204 200 212 239 215 197 200 203 199 201 210 211 211 219 228 229 225 223 225 226 223 218 216 214 212 212 212 211 211 216 225 228 225 225 225 223 222 221 221 221 221 222 224 224 224 228 228 226 225 226 229
256 261 257 258 264 267 269 276 282 281 279 277 273 272 275 277 278 287 297 294 291 288 272 262 250 243 246 245 226 134 81 140 168 147 73 148 166 189 220 165 158 173 189 191 192 197 200 205 220 232 232 227 222 222 223 221 219 219 216 213 211 211 212 214 217 224 229 225 224 226 225 222 221 220 220 221 221 224 225 225 227 230 229 227 227 229
251 256 258 259 263 267 269 271 274 274 273 271 267 267 270 271 270 273 282 291 289 276 268 270 264 244 241 240 232 257 21 122 148 115 65 116 118 118 116 109 127 144 166 183 189 196 205 216 227 231 231 231 227 224 221 217 218 219 217 216 211 209 213 217 219 225 230 225 222 225 225 224 222 220 220 220 219 222 225 226 227 229 230 229 227 228
249 254 256 261 266 268 266 265 266 267 268 267 263 264 267 267 269 270 271 279 281 275 267 263 255 245 245 251 244 249 287 92 131 43 85 136 132 116 90 68 104 122 132 165 186 197 203 211 220 226 232 234 233 232 229 224 221 218 217 217 213 209 213 216 219 225 231 227 222 223 224 225 224 223 222 222 220 220 223 227 228 227 230 232 229 227
245 254 260 262 263 264 262 259 260 261 263 263 259 257 259 260 264 264 261 265 267 264 266 258 244 241 251 261 253 246 261 291 288 255 205 186 177 143 63 33 62 105 118 149 176 192 196 201 208 213 224 229 229 231 231 230 230 222 216 215 214 213 213 215 219 225 229 229 225 223 223 225 226 225 225 225 224 222 222 226 228 228 228 232 231 228
243 247 253 255 259 263 262 257 256 258 258 258 254 251 251 254 259 259 257 259 258 254 262 260 243 240 251 257 254 247 249 260 259 247 254 248 198 181 40 16 36 89 136 162 187 188 187 198 200 198 208 219 225 228 226 224 225 220 214 214 216 216 215 215 219 223 227 230 228 225 224 225 227 228 228 229 228 226 224 225 228 229 228 230 232 230
253 247 247 247 252 262 267 265 261 253 246 248 250 250 250 249 253 257 255 256 256 250 251 254 253 251 250 254 260 253 243 246 249 246 254 253 214 200 223 273 355 177 193 225 217 189 178 192 199 198 202 205 212 221 222 222 221 218 219 220 217 216 217 217 220 222 225 228 228 227 226 225 227 229 230 231 230 229 228 227 228 230 229 229 231 232
253 249 248 245 245 255 265 268 263 249 242 249 254 252 251 251 252 254 252 252 255 252 245 247 256 259 256 267 275 262 247 246 248 249 252 250 241 231 233 241 249 254 272 262 216 191 181 189 196 203 206 205 209 215 217 219 217 216 224 226 218 214 215 217 221 223 225 226 227 228 227 226 227 228 229 230 230 230 230 229 229 230 230 229 230 232
248 246 245 244 241 245 253 252 251 255 255 256 260 258 256 257 257 255 251 247 248 251 245 243 250 255 254 261 270 259 249 247 248 255 260 253 250 252 254 254 253 257 271 257 213 205 208 207 207 215 216 215 220 221 219 219 214 215 224 226 220 216 216 216 220 224 226 225 227 229 229 229 228 227 228 229 229 230 231 230 229 229 231 232 232 232
245 244 245 247 241 237 241 242 244 261 268 261 259 258 251 246 248 251 247 235 232 244 246 239 243 250 250 250 251 248 247 245 244 250 258 256 256 258 260 260 257 257 263 257 234 220 217 222 233 237 228 222 225 228 227 221 216 217 222 222 217 216 218 217 219 225 228 227 228 230 230 231 231 230 230 229 228 230 231 231 231 230 231 234 235 234
242 243 242 246 246 237 238 245 245 253 261 256 251 249 242 238 242 247 248 238 234 244 244 236 240 247 246 247 249 249 252 253 251 252 258 259 260 261 262 264 263 262 264 261 250 235 227 235 244 244 239 233 230 235 236 226 218 218 222 222 218 216 220 221 220 225 230 229 230 232 232 232 233 233 233 233 230 230 231 231 231 230 232 235 237 239
240 245 240 241 248 242 235 239 240 241 252 255 249 245 248 251 245 244 248 247 246 251 246 239 243 245 243 246 249 250 256 262 259 255 257 258 260 262 265 268 269 269 269 266 260 251 243 243 246 246 244 240 234 237 240 233 224 218 218 222 222 219 222 224 223 226 230 232 233 233 232 232 232 233 236 237 234 231 230 231 231 231 232 235 238 240
243 247 237 232 239 240 234 235 238 241 251 254 244 237 257 260 250 241 240 238 241 247 246 243 246 246 243 248 251 249 252 257 254 249 250 253 256 262 266 269 272 271 269 266 263 259 254 250 248 247 246 243 239 236 238 238 230 221 218 220 222 221 222 224 226 227 229 233 235 233 231 231 231 232 235 238 237 234 230 230 231 231 231 234 236 239
252 246 236 230 233 234 230 234 240 240 246 249 245 249 273 269 258 247 244 243 245 249 248 245 246 246 244 247 253 252 250 252 251 250 251 254 257 261 264 267 270 270 266 262 259 257 257 255 250 246 244 242 239 234 237 239 228 219 217 218 222 224 222 223 227 229 230 234 236 234 232 230 229 231 234 237 238 237 234 232 232 231 231 232 234 236
265 254 240 232 232 231 228 232 239 239 237 244 250 258 269 267 262 252 249 250 249 251 251 248 247 247 245 247 254 257 253 252 252 251 252 254 257 259 261 263 265 266 265 261 256 252 253 252 249 246 242 239 238 236 238 238 227 217 215 217 222 224 223 224 227 230 232 234 235 235 233 229 229 231 233 235 238 238 237 236 234 233 232 232 233 234
277 277 260 238 231 233 235 236 241 242 236 241 250 260 264 262 262 259 254 252 252 251 252 252 252 252 249 246 252 258 254 250 250 250 251 252 254 257 260 262 263 263 263 262 257 251 249 248 246 244 240 237 239 237 236 237 232 222 218 219 221 222 223 225 227 229 231 232 232 234 232 229 229 231 232 235 237 237 238 237 236 235 233 231 232 232
296 295 291 261 234 230 235 234 234 242 241 239 243 254 258 257 261 269 266 260 260 262 259 256 254 254 250 245 246 252 249 245 246 249 251 251 250 251 255 259 261 261 260 260 258 253 249 246 243 241 238 238 241 238 232 233 232 225 222 225 226 224 224 226 227 227 228 227 228 231 231 230 231 231 232 235 237 238 238 238 237 237 235 232 231 232
312 294 279 271 254 247 252 253 263 276 265 256 252 255 260 261 264 274 276 271 269 269 266 264 258 252 247 245 245 249 247 244 244 247 249 249 247 247 249 253 256 257 257 257 256 253 251 247 241 237 237 239 242 239 234 233 232 227 225 228 228 226 226 227 227 226 225 223 224 227 228 230 232 232 233 236 237 238 239 238 238 238 236 232 231 233
309 295 276 272 273 275 268 261 268 277 275 275 276 269 267 268 266 270 275 275 275 272 265 266 267 258 251 248 247 246 246 245 244 245 246 244 243 244 246 249 252 254 254 253 253 251 251 248 241 236 236 239 242 240 236 234 233 231 227 226 226 225 226 227 226 225 222 219 219 222 226 228 232 233 233 234 237 238 238 238 238 239 237 234 233 234
326 315 295 283 278 276 270 262 263 265 267 277 281 276 272 271 268 268 270 270 272 272 266 265 267 264 257 252 249 246 245 246 247 247 245 241 239 241 244 247 249 250 250 250 250 249 248 247 244 239 237 239 241 240 236 234 233 232 228 225 223 223 225 227 226 224 222 217 214 217 223 226 229 231 231 233 235 236 236 236 237 238 237 236 235 235
341 332 319 305 291 280 273 270 268 265 264 271 275 272 268 264 260 261 263 263 264 267 269 268 267 266 261 255 253 252 250 250 252 252 249 245 242 242 243 245 247 248 248 247 247 247 245 244 242 240 239 239 240 240 237 234 232 230 228 225 223 223 226 227 226 224 221 216 213 215 221 226 228 229 230 232 234 234 235 235 236 237 238 240 239 235
339 338 329 317 310 303 288 280 277 272 265 261 259 258 256 256 255 254 254 255 258 263 268 268 266 265 263 258 257 257 254 253 256 256 253 249 247 245 246 249 251 251 250 248 245 243 242 240 238 238 238 239 237 235 233 233 230 227 224 221 221 223 226 226 225 225 221 215 212 214 219 224 227 228 229 230 231 232 232 233 236 239 241 241 238 233
330 340 341 331 322 316 304 294 291 286 274 259 250 250 251 254 256 254 251 252 253 256 263 266 263 261 260 257 257 257 253 252 255 256 253 249 246 245 248 249 247 245 247 250 248 245 241 237 233 233 235 234 231 228 228 229 227 223 219 216 217 222 225 224 223 223 219 213 211 214 218 222 225 227 227 227 228 229 230 232 237 240 237 233 229 227
325 335 340 338 332 320 307 299 294 290 285 276 267 261 257 257 260 261 259 257 253 254 260 265 264 262 259 256 255 254 251 249 251 251 249 245 244 244 241 237 232 227 230 239 246 250 249 240 231 229 231 229 225 224 223 223 223 222 218 215 215 219 224 226 224 222 217 212 211 214 217 220 223 225 224 224 225 226 228 233 235 231 225 222 222 223
Height
3126 3127 3126 3125 3126 3129 3130 3131 3132 3134 3135 3134 3133 3132 3131 3132 3132 3133 3134 3135 3135 3137 3139 3141 3144 3146 3147 3148 3150 3151 3153 3154 3156 3157 3158 3159 3160 3162 3164 3167 3168 3169 3171 3173 3174 3176 3177 3178 3180 3181 3182 3183 3185 3186 3187 3189 3190 3192 3193 3194 3196 3198 3199 3201 3202 3204 3206 3208 3210 3212 3214 3216 3218 3220 3221 3222 3223 3225 3226 3228 3229 3230 3231 3232 3233 3234
3124 3124 3123 3124 3126 3128 3130 3131 3132 3133 3134 3133 3133 3131 3130 3130 3130 3131 3132 3133 3134 3134 3136 3140 3142 3145 3147 3147 3148 3151 3152 3153 3155 3155 3157 3158 3160 3162 3163 3165 3168 3169 3170 3173 3174 3175 3176 3177 3179 3180 3181 3182 3184 3185 3186 3188 3189 3191 3192 3193 3196 3197 3199 3201 3202 3204 3206 3208 3210 3212 3214 3216 3218 3220 3221 3222 3223 3225 3226 3227 3229 3230 3232 3233 3233 3234
3122 3120 3121 3124 3126 3128 3129 3130 3131 3132 3132 3132 3132 3131 3130 3130 3129 3129 3130 3131 3131 3132 3134 3137 3139 3141 3144 3145 3146 3148 3151 3153 3153 3154 3156 3158 3159 3161 3161 3163 3165 3167 3169 3171 3173 3174 3175 3176 3178 3179 3180 3181 3183 3184 3185 3187 3189 3190 3191 3193 3195 3197 3199 3200 3202 3204 3206 3208 3210 3212 3214 3216 3217 3219 3220 3222 3223 3225 3226 3227 3229 3230 3232 3233 3233 3234
3120 3119 3121 3124 3126 3127 3128 3129 3130 3130 3130 3131 3131 3130 3129 3130 3129 3127 3128 3129 3129 3130 3132 3134 3137 3138 3139 3142 3144 3145 3148 3151 3152 3153 3155 3157 3159 3159 3160 3161 3163 3165 3168 3170 3173 3174 3175 3176 3177 3177 3179 3180 3181 3183 3184 3186 3187 3189 3190 3192 3194 3196 3198 3200 3202 3204 3206 3208 3209 3211 3213 3215 3217 3218 3220 3221 3223 3224 3226 3227 3228 3230 3231 3233 3233 3234
3118 3119 3121 3122 3124 3125 3126 3127 3128 3128 3128 3128 3129 3129 3128 3129 3129 3127 3126 3127 3127 3129 3130 3132 3134 3135 3136 3138 3141 3143 3146 3148 3150 3150 3152 3155 3158 3158 3158 3160 3163 3164 3166 3169 3171 3173 3174 3175 3175 3176 3178 3179 3180 3181 3183 3185 3186 3188 3189 3191 3193 3195 3197 3199 3201 3203 3205 3206 3208 3210 3212 3213 3215 3217 3219 3220 3222 3224 3226 3227 3228 3230 3231 3232 3233 3234
3117 3119 3121 3121 3122 3123 3124 3125 3126 3127 3126 3126 3127 3127 3128 3128 3129 3128 3127 3126 3125 3125 3128 3130 3128 3129 3133 3135 3136 3139 3142 3145 3147 3148 3149 3152 3155 3155 3155 3158 3161 3162 3163 3166 3170 3172 3174 3174 3175 3176 3177 3178 3179 3180 3182 3184 3186 3187 3189 3191 3193 3194 3196 3198 3200 3202 3204 3206 3207 3209 3210 3212 3213 3215 3218 3220 3222 3223 3225 3227 3228 3229 3231 3232 3233 3234
3116 3118 3119 3120 3120 3121 3122 3123 3124 3125 3125 3125 3125 3126 3127 3128 3128 3129 3128 3127 3125 3123 3124 3127 3125 3126 3131 3133 3133 3134 3136 3141 3144 3145 3146 3149 3152 3153 3154 3156 3158 3160 3161 3163 3167 3170 3172 3173 3173 3174 3175 3177 3178 3179 3181 3183 3185 3186 3188 3190 3192 3194 3195 3197 3199 3201 3203 3205 3206 3208 3210 3211 3213 3216 3218 3219 3221 3223 3224 3226 3228 3229 3230 3232 3233 3234
3114 3116 3117 3118 3119 3119 3119 3120 3122 3124 3124 3123 3124 3125 3126 3126 3127 3128 3128 3127 3126 3125 3123 3123 3124 3125 3127 3130 3132 3131 3131 3136 3140 3141 3143 3146 3149 3151 3152 3154 3156 3157 3159 3162 3165 3167 3170 3171 3172 3172 3174 3176 3177 3178 3180 3182 3183 3185 3187 3189 3191 3193 3195 3197 3198 3200 3202 3204 3205 3207 3209 3211 3213 3216 3218 3219 3220 3222 3223 3225 3227 3228 3230 3231 3233 3234
3113 3114 3115 3116 3117 3117 3117 3119 3121 3123 3122 3122 3124 3125 3125 3125 3126 3126 3128 3127 3127 3127 3123 3122 3123 3122 3122 3125 3129 3129 3129 3132 3135 3138 3140 3141 3144 3147 3150 3152 3154 3155 3158 3161 3164 3166 3167 3169 3170 3171 3173 3175 3176 3177 3179 3181 3182 3184 3185 3188 3190 3191 3193 3196 3198 3199 3201 3203 3205 3206 3208 3210 3212 3214 3216 3217 3219 3221 3222 3224 3226 3228 3229 3230 3232 3233
3111 3112 3114 3115 3115 3115 3116 3118 3120 3121 3121 3122 3124 3124 3124 3124 3124 3125 3125 3125 3127 3125 3121 3122 3123 3121 3120 3121 3124 3127 3128 3129 3130 3133 3136 3138 3140 3143 3146 3149 3151 3154 3156 3159 3162 3164 3166 3167 3168 3169 3171 3173 3175 3175 3177 3179 3181 3182 3184 3186 3188 3190 3192 3194 3197 3198 3200 3202 3203 3205 3207 3209 3211 3213 3214 3216 3218 3219 3221 3223 3225 3227 3228 3229 3231 3232
3109 3110 3112 3113 3112 3113 3115 3117 3118 3119 3120 3122 3123 3123 3123 3123 3124 3124 3124 3124 3124 3120 3119 3123 3123 3122 3121 3119 3120 3122 3125 3127 3126 3127 3132 3135 3137 3140 3143 3146 3148 3151 3153 3156 3158 3161 3163 3165 3166 3167 3169 3171 3173 3174 3175 3177 3179 3181 3183 3185 3187 3189 3191 3193 3195 3197 3198 3200 3202 3204 3206 3208 3210 3211 3213 3214 3216 3218 3220 3222 3224 3226 3227 3229 3230 3231
3107 3107 3108 3110 3111 3112 3114 3115 3116 3117 3119 3120 3121 3122 3122 3121 3123 3123 3123 3124 3120 3116 3118 3122 3123 3123 3120 3118 3119 3119 3121 3125 3124 3125 3129 3131 3134 3137 3140 3143 3146 3148 3151 3153 3156 3158 3160 3162 3163 3165 3166 3168 3170 3172 3173 3175 3177 3179 3181 3183 3186 3188 3189 3191 3193 3195 3197 3199 3201 3203 3205 3207 3209 3210 3212 3213 3215 3217 3219 3221 3223 3224 3226 3227 3229 3230
3107 3106 3106 3108 3109 3110 3112 3113 3114 3116 3117 3118 3119 3120 3120 3119 3120 3121 3120 3120 3116 3114 3117 3120 3121 3119 3116 3118 3121 3119 3120 3124 3125 3124 3124 3126 3130 3135 3138 3140 3143 3146 3148 3150 3153 3156 3158 3159 3160 3162 3163 3165 3167 3169 3171 3173 3175 3176 3179 3181 3184 3186 3188 3190 3191 3194 3195 3197 3200 3201 3203 3205 3207 3209 3210 3212 3214 3216 3218 3220 3221 3223 3225 3226 3228 3229
3103 3104 3105 3107 3108 3108 3109 3110 3111 3113 3114 3115 3116 3117 3118 3117 3118 3118 3117 3115 3113 3112 3114 3117 3117 3114 3113 3116 3119 3118 3118 3121 3124 3124 3121 3121 3126 3131 3135 3138 3141 3143 3145 3147 3150 3153 3154 3156 3157 3159 3161 3162 3165 3167 3169 3171 3172 3174 3176 3179 3182 3185 3187 3188 3190 3192 3194 3196 3198 3200 3202 3204 3206 3207 3209 3211 3212 3215 3217 3219 3220 3222 3224 3225 3227 3228
3100 3098 3100 3103 3104 3106 3107 3108 3109 3111 3112 3113 3114 3116 3116 3115 3115 3114 3112 3111 3110 3108 3110 3112 3111 3109 3110 3112 3114 3116 3117 3118 3122 3123 3120 3119 3123 3127 3131 3134 3137 3139 3142 3145 3148 3150 3152 3153 3155 3157 3159 3160 3163 3165 3166 3168 3170 3172 3174 3177 3180 3183 3185 3187 3188 3190 3192 3194 3196 3199 3201 3202 3204 3206 3207 3209 3211 3213 3215 3217 3219 3220 3222 3224 3226 3227
3100 3096 3096 3099 3100 3102 3104 3106 3109 3111 3110 3110 3112 3114 3113 3113 3114 3111 3108 3107 3107 3105 3104 3105 3105 3106 3108 3109 3111 3114 3115 3117 3120 3121 3119 3117 3120 3124 3126 3130 3133 3136 3140 3143 3146 3148 3150 3152 3154 3155 3157 3159 3161 3163 3164 3166 3168 3170 3172 3175 3178 3181 3183 3185 3187 3189 3191 3193 3195 3197 3199 3201 3202 3204 3206 3208 3209 3211 3214 3215 3217 3219 3221 3223 3224 3226
3102 3097 3096 3097 3098 3100 3102 3103 3106 3108 3107 3107 3109 3109 3110 3113 3114 3112 3109 3107 3106 3104 3101 3100 3099 3102 3105 3107 3109 3111 3113 3115 3117 3120 3120 3117 3117 3121 3124 3126 3130 3133 3137 3140 3143 3145 3147 3149 3151 3153 3155 3157 3159 3160 3162 3164 3166 3169 3170 3173 3176 3179 3181 3183 3185 3187 3190 3192 3193 3195 3197 3199 3200 3202 3204 3206 3208 3210 3212 3214 3216 3218 3220 3222 3223 3224
3105 3099 3095 3096 3096 3098 3101 3102 3104 3107 3106 3105 3105 3106 3110 3113 3112 3112 3110 3108 3107 3104 3100 3098 3097 3098 3101 3103 3105 3108 3110 3112 3115 3118 3121 3118 3115 3118 3122 3124 3126 3129 3133 3136 3140 3143 3146 3147 3149 3151 3153 3155 3157 3158 3160 3163 3165 3167 3169 3171 3175 3177 3179 3181 3183 3185 3188 3190 3191 3193 3195 3197 3198 3200 3202 3204 3206 3208 3210 3212 3214 3216 3218 3220 3221 3223
3107 3103 3097 3097 3097 3096 3098 3100 3101 3104 3105 3104 3103 3104 3107 3108 3108 3110 3110 3107 3106 3104 3100 3098 3097 3096 3096 3098 3102 3105 3107 3109 3112 3115 3118 3119 3117 3118 3120 3121 3123 3126 3129 3133 3137 3140 3143 3145 3147 3149 3151 3153 3155 3157 3159 3162 3164 3166 3168 3170 3173 3176 3178 3180 3182 3184 3186 3188 3189 3191 3193 3195 3197 3199 3201 3203 3204 3206 3208 3210 3212 3214 3216 3218 3220 3221
3109 3107 3099 3096 3097 3097 3096 3096 3097 3099 3102 3104 3104 3102 3103 3104 3104 3105 3106 3106 3106 3104 3101 3099 3096 3095 3095 3096 3098 3101 3104 3108 3111 3113 3115 3118 3119 3121 3122 3120 3122 3126 3127 3129 3133 3137 3139 3142 3144 3146 3149 3151 3153 3155 3157 3160 3162 3164 3166 3168 3171 3173 3176 3178 3179 3181 3183 3186 3187 3189 3191 3193 3195 3197 3199 3201 3202 3204 3206 3208 3210 3212 3214 3216 3218 3220
3109 3109 3103 3097 3098 3097 3095 3095 3096 3098 3099 3102 3102 3100 3101 3103 3102 3101 3100 3102 3104 3103 3101 3099 3095 3093 3095 3097 3097 3099 3103 3106 3109 3111 3113 3116 3118 3121 3123 3120 3120 3125 3127 3127 3130 3134 3137 3139 3141 3144 3146 3149 3151 3154 3156 3158 3161 3162 3163 3165 3169 3171 3173 3175 3177 3179 3181 3183 3185 3187 3189 3191 3193 3195 3197 3199 3200 3202 3204 3206 3208 3210 3212 3214 3216 3217
3108 3109 3105 3100 3099 3098 3096 3096 3099 3100 3099 3100 3099 3098 3099 3101 3102 3100 3097 3097 3101 3102 3100 3100 3097 3092 3093 3096 3096 3098 3101 3103 3106 3109 3111 3114 3116 3118 3121 3121 3119 3122 3125 3125 3127 3131 3134 3137 3139 3141 3143 3146 3149 3152 3154 3156 3159 3161 3161 3163 3167 3169 3171 3173 3175 3176 3178 3181 3183 3185 3187 3189 3191 3193 3195 3196 3198 3200 3202 3204 3206 3208 3210 3212 3214 3215
3107 3107 3105 3101 3099 3098 3097 3096 3096 3096 3096 3096 3096 3097 3099 3099 3100 3098 3095 3095 3097 3098 3100 3101 3098 3094 3093 3094 3094 3096 3099 3101 3104 3107 3109 3112 3114 3116 3118 3120 3120 3121 3123 3123 3124 3128 3132 3135 3138 3139 3141 3144 3146 3148 3152 3154 3156 3158 3159 3161 3164 3167 3169 3171 3173 3174 3176 3179 3180 3183 3185 3187 3189 3190 3192 3194 3196 3198 3200 3202 3204 3206 3208 3210 3212 3213
3105 3106 3105 3102 3099 3097 3096 3095 3094 3095 3095 3095 3094 3094 3096 3097 3097 3097 3096 3096 3095 3095 3097 3099 3098 3096 3095 3094 3094 3096 3098 3101 3103 3105 3108 3110 3112 3114 3116 3118 3119 3121 3122 3122 3122 3126 3130 3133 3135 3137 3139 3141 3143 3145 3148 3151 3153 3154 3156 3159 3161 3164 3167 3169 3171 3172 3174 3176 3178 3180 3182 3184 3186 3188 3190 3192 3194 3196 3198 3200 3202 3204 3206 3208 3210 3211
3105 3106 3106 3103 3100 3098 3096 3096 3095 3096 3097 3096 3095 3095 3094 3095 3095 3095 3097 3098 3095 3093 3093 3095 3096 3096 3096 3096 3097 3098 3099 3101 3103 3104 3107 3108 3110 3112 3114 3115 3117 3118 3119 3119 3120 3124 3128 3131 3132 3133 3136 3138 3140 3142 3145 3147 3149 3151 3153 3156 3159 3162 3165 3167 3169 3170 3172 3174 3176 3177 3180 3182 3184 3185 3187 3189 3191 3194 3196 3198 3200 3202 3204 3206 3207 3209
3105 3105 3105 3103 3100 3097 3095 3095 3095 3095 3096 3095 3094 3095 3095 3095 3094 3094 3096 3097 3095 3093 3093 3093 3094 3095 3097 3098 3099 3100 3100 3101 3103 3104 3106 3107 3108 3110 3112 3114 3115 3116 3117 3117 3118 3121 3125 3128 3129 3131 3133 3136 3138 3140 3142 3144 3146 3148 3150 3153 3156 3159 3162 3164 3166 3168 3169 3172 3173 3174 3177 3179 3181 3183 3185 3187 3189 3191 3194 3195 3197 3199 3201 3203 3205 3207
3104 3104 3103 3102 3100 3096 3093 3094 3095 3096 3096 3095 3094 3093 3093 3094 3093 3093 3095 3095 3095 3095 3093 3093 3094 3095 3096 3098 3099 3100 3101 3103 3104 3105 3105 3107 3108 3110 3111 3111 3112 3114 3115 3116 3117 3120 3123 3125 3128 3130 3132 3135 3137 3138 3140 3142 3143 3145 3148 3151 3153 3156 3159 3161 3164 3166 3167 3169 3171 3172 3174 3176 3178 3180 3183 3185 3187 3189 3191 3193 3195 3197 3199 3201 3203 3204
3103 3102 3101 3100 3099 3096 3094 3094 3097 3097 3096 3096 3095 3092 3091 3092 3092 3092 3092 3092 3093 3094 3091 3092 3096 3096 3096 3099 3099 3098 3100 3103 3105 3106 3106 3108 3109 3110 3109 3109 3110 3113 3115 3115 3117 3120 3122 3124 3127 3130 3132 3134 3136 3137 3138 3140 3142 3144 3146 3148 3150 3153 3156 3158 3161 3163 3165 3167 3168 3170 3172 3174 3176 3178 3180 3183 3185 3187 3188 3191 3192 3194 3197 3199 3200 3202
3102 3100 3100 3099 3098 3096 3095 3095 3096 3097 3096 3096 3095 3093 3092 3093 3093 3092 3092 3091 3092 3093 3092 3092 3095 3095 3096 3100 3100 3099 3099 3099 3101 3103 3103 3104 3105 3107 3109 3109 3110 3113 3115 3116 3118 3120 3123 3125 3127 3129 3131 3133 3134 3135 3135 3137 3140 3142 3144 3146 3147 3150 3153 3156 3158 3161 3163 3165 3166 3168 3170 3172 3174 3176 3178 3180 3182 3184 3186 3188 3190 3192 3194 3196 3198 3200
3100 3098 3098 3098 3096 3095 3095 3094 3094 3095 3095 3095 3094 3093 3092 3092 3093 3093 3092 3091 3092 3092 3091 3092 3093 3093 3094 3098 3100 3100 3099 3098 3098 3099 3098 3098 3099 3103 3107 3109 3109 3112 3115 3116 3118 3121 3124 3126 3127 3128 3130 3131 3132 3132 3133 3135 3137 3139 3141 3143 3144 3147 3151 3154 3156 3158 3161 3162 3164 3166 3168 3170 3172 3174 3176 3177 3180 3182 3183 3185 3188 3189 3191 3193 3196 3197
3099 3097 3097 3097 3095 3092 3093 3093 3093 3094 3093 3093 3093 3093 3091 3091 3092 3092 3092 3092 3092 3091 3090 3091 3092 3092 3093 3097 3099 3099 3099 3098 3098 3097 3097 3098 3099 3099 3102 3106 3108 3111 3112 3114 3116 3118 3120 3123 3125 3126 3127 3128 3129 3130 3131 3133 3135 3137 3139 3141 3142 3145 3149 3152 3153 3155 3158 3160 3162 3164 3166 3168 3170 3172 3173 3175 3177 3179 3181 3183 3185 3187 3189 3191 3193 3195
3097 3096 3096 3096 3093 3090 3091 3092 3091 3092 3092 3090 3089 3090 3090 3090 3090 3091 3092 3093 3092 3091 3091 3090 3090 3091 3093 3095 3098 3099 3100 3097 3095 3096 3098 3100 3100 3099 3101 3104 3108 3110 3111 3112 3113 3114 3115 3117 3120 3121 3123 3124 3126 3127 3129 3131 3133 3134 3136 3138 3140 3142 3146 3149 3150 3152 3156 3158 3160 3162 3164 3166 3168 3169 3171 3173 3175 3177 3179 3180 3182 3184 3186 3188 3190 3193
3095 3094 3095 3095 3092 3089 3089 3089 3089 3090 3089 3085 3084 3087 3089 3088 3088 3089 3090 3091 3091 3092 3091 3089 3089 3091 3094 3096 3097 3098 3097 3095 3095 3098 3100 3100 3100 3100 3101 3103 3106 3108 3109 3110 3111 3111 3113 3114 3115 3116 3119 3121 3124 3126 3128 3128 3129 3131 3133 3135 3137 3139 3142 3144 3147 3149 3153 3155 3157 3160 3162 3164 3166 3167 3169 3171 3173 3175 3177 3178 3180 3181 3184 3186 3188 3190
3093 3093 3093 3093 3092 3089 3088 3088 3087 3085 3082 3081 3083 3086 3087 3087 3087 3086 3086 3088 3090 3090 3090 3088 3088 3090 3092 3094 3095 3095 3094 3095 3096 3099 3101 3100 3099 3099 3099 3101 3103 3105 3107 3107 3109 3111 3112 3113 3114 3115 3117 3118 3120 3124 3126 3126 3128 3130 3131 3131 3132 3134 3137 3141 3143 3146 3149 3152 3155 3157 3159 3161 3163 3165 3167 3169 3171 3173 3174 3176 3177 3179 3181 3183 3185 3186
3091 3091 3091 3091 3091 3089 3088 3088 3085 3080 3078 3080 3083 3084 3084 3085 3086 3085 3083 3085 3087 3088 3089 3089 3088 3089 3092 3094 3094 3092 3092 3093 3095 3097 3098 3098 3098 3098 3098 3100 3102 3104 3106 3107 3109 3111 3112 3113 3114 3114 3115 3116 3117 3120 3121 3123 3125 3127 3127 3128 3129 3130 3133 3137 3140 3143 3146 3149 3152 3154 3157 3159 3161 3163 3165 3167 3169 3170 3172 3173 3175 3177 3178 3180 3182 3184
3087 3088 3088 3088 3088 3087 3087 3086 3083 3079 3079 3081 3081 3081 3082 3082 3082 3081 3080 3081 3085 3088 3088 3086 3087 3089 3089 3089 3088 3087 3087 3090 3094 3096 3095 3095 3096 3097 3097 3098 3100 3102 3104 3106 3108 3109 3110 3111 3112 3113 3114 3115 3116 3118 3119 3120 3122 3124 3125 3126 3128 3128 3130 3134 3137 3140 3143 3146 3149 3151 3154 3156 3159 3161 3163 3164 3166 3168 3169 3171 3173 3174 3176 3177 3179 3181
3085 3085 3085 3085 3085 3084 3083 3082 3082 3080 3079 3078 3078 3078 3078 3078 3076 3076 3076 3078 3082 3083 3080 3080 3082 3081 3079 3079 3081 3083 3084 3087 3092 3093 3092 3092 3095 3096 3097 3098 3099 3100 3102 3104 3105 3107 3108 3110 3111 3112 3112 3113 3115 3116 3117 3118 3119 3121 3123 3125 3126 3127 3128 3132 3135 3138 3140 3143 3146 3148 3151 3154 3156 3158 3160 3162 3163 3165 3167 3169 3170 3172 3173 3175 3176 3178
3081 3082 3083 3084 3082 3081 3081 3080 3080 3079 3076 3075 3075 3075 3075 3074 3074 3074 3075 3077 3077 3074 3074 3077 3077 3074 3074 3075 3078 3081 3082 3084 3088 3091 3091 3091 3092 3094 3095 3096 3097 3098 3100 3101 3103 3104 3106 3107 3108 3109 3110 3111 3113 3114 3115 3116 3117 3118 3120 3122 3124 3125 3127 3130 3133 3135 3137 3140 3143 3146 3148 3151 3153 3155 3157 3159 3161 3163 3164 3166 3168 3169 3171 3172 3174 3176
3078 3078 3080 3081 3080 3079 3079 3079 3078 3077 3074 3072 3072 3072 3072 3072 3073 3075 3075 3074 3072 3071 3073 3075 3074 3074 3075 3075 3076 3080 3082 3081 3085 3089 3089 3088 3089 3091 3092 3094 3095 3096 3098 3099 3100 3101 3102 3104 3105 3106 3107 3109 3111 3112 3113 3113 3114 3115 3117 3119 3121 3123 3124 3126 3129 3131 3134 3137 3141 3143 3146 3148 3150 3152 3154 3156 3158 3160 3162 3164 3165 3167 3168 3170 3171 3173
3074 3075 3076 3077 3076 3076 3077 3076 3075 3074 3072 3070 3069 3070 3070 3070 3072 3074 3073 3070 3069 3070 3071 3072 3072 3074 3075 3074 3075 3078 3078 3077 3081 3084 3084 3084 3087 3088 3089 3090 3092 3093 3095 3096 3097 3098 3099 3101 3102 3103 3105 3106 3108 3110 3111 3111 3111 3113 3114 3116 3119 3121 3122 3125 3127 3128 3131 3134 3137 3140 3143 3145 3147 3149 3151 3153 3155 3157 3159 3161 3163 3164 3166 3167 3169 3170
3071 3071 3072 3072 3073 3074 3075 3073 3072 3071 3070 3067 3067 3069 3070 3070 3071 3071 3069 3067 3068 3068 3068 3069 3070 3071 3072 3073 3074 3076 3076 3075 3077 3079 3079 3081 3084 3085 3085 3087 3088 3089 3091 3093 3094 3095 3096 3098 3099 3100 3101 3102 3104 3106 3107 3108 3109 3110 3111 3114 3115 3117 3120 3123 3124 3125 3128 3131 3134 3136 3139 3142 3144 3146 3148 3149 3152 3154 3156 3158 3160 3161 3163 3164 3166 3167
3069 3069 3069 3069 3070 3071 3071 3070 3069 3068 3067 3065 3066 3068 3068 3069 3069 3067 3066 3066 3067 3066 3066 3067 3068 3068 3069 3072 3074 3075 3075 3073 3073 3074 3076 3079 3081 3081 3081 3083 3085 3086 3087 3089 3091 3092 3092 3093 3095 3096 3097 3099 3100 3102 3104 3105 3105 3107 3109 3111 3112 3115 3119 3121 3121 3122 3124 3127 3130 3133 3136 3138 3141 3142 3144 3146 3148 3150 3153 3155 3157 3158 3160 3161 3163 3164
3067 3067 3066 3067 3068 3068 3069 3069 3067 3065 3064 3064 3065 3066 3066 3067 3066 3065 3065 3066 3065 3065 3065 3065 3065 3066 3068 3070 3072 3073 3073 3071 3069 3069 3071 3075 3078 3078 3078 3079 3081 3083 3084 3085 3087 3088 3089 3090 3091 3093 3094 3096 3097 3098 3099 3100 3101 3103 3105 3107 3110 3114 3116 3117 3118 3119 3122 3124 3127 3129 3132 3135 3137 3139 3141 3143 3144 3147 3149 3151 3153 3155 3157 3158 3160 3161
3067 3066 3066 3066 3066 3066 3066 3066 3064 3063 3062 3062 3063 3064 3064 3065 3065 3064 3064 3065 3064 3064 3063 3063 3064 3065 3066 3068 3070 3070 3069 3068 3066 3066 3067 3071 3075 3076 3076 3076 3078 3079 3081 3082 3083 3085 3085 3086 3088 3090 3091 3092 3093 3093 3094 3095 3097 3099 3101 3104 3108 3111 3112 3113 3114 3117 3119 3121 3124 3126 3129 3131 3133 3135 3137 3139 3140 3143 3145 3148 3150 3152 3153 3155 3157 3158
3067 3066 3066 3065 3065 3064 3064 3063 3061 3060 3060 3061 3062 3062 3062 3063 3063 3063 3063 3062 3062 3062 3062 3062 3063 3063 3063 3064 3065 3066 3066 3065 3064 3064 3066 3069 3072 3074 3074 3075 3075 3075 3077 3078 3080 3081 3082 3083 3085 3086 3087 3087 3088 3089 3090 3091 3093 3095 3097 3101 3104 3106 3107 3108 3111 3113 3115 3118 3120 3122 3125 3127 3129 3131 3133 3135 3137 3139 3142 3144 3146 3148 3150 3152 3153 3154
3066 3065 3064 3064 3064 3063 3062 3061 3060 3059 3059 3060 3061 3060 3060 3060 3060 3061 3061 3060 3060 3060 3060 3060 3061 3061 3061 3061 3061 3063 3063 3063 3063 3063 3064 3066 3069 3071 3072 3072 3072 3072 3073 3074 3076 3078 3079 3080 3081 3081 3082 3083 3084 3085 3086 3088 3089 3092 3094 3097 3099 3101 3102 3104 3107 3110 3112 3114 3116 3119 3121 3123 3125 3127 3129 3131 3133 3135 3138 3141 3143 3144 3146 3148 3149 3151
3064 3063 3063 3062 3062 3061 3060 3058 3058 3057 3058 3059 3059 3058 3058 3058 3058 3058 3058 3058 3058 3058 3058 3058 3058 3059 3059 3058 3059 3059 3060 3060 3061 3062 3062 3063 3066 3067 3068 3069 3069 3069 3069 3070 3072 3073 3075 3076 3077 3077 3078 3079 3080 3081 3082 3084 3086 3089 3091 3093 3095 3096 3097 3100 3103 3106 3108 3110 3112 3114 3116 3118 3120 3123 3125 3127 3129 3131 3134 3137 3139 3140 3142 3144 3146 3147
3063 3062 3061 3060 3059 3058 3057 3056 3054 3054 3056 3057 3056 3054 3054 3055 3054 3055 3055 3055 3055 3056 3055 3055 3056 3056 3056 3056 3056 3056 3057 3057 3058 3059 3059 3060 3062 3063 3064 3065 3065 3065 3065 3066 3067 3069 3071 3072 3072 3073 3074 3075 3076 3077 3078 3081 3083 3084 3086 3088 3090 3091 3093 3096 3099 3101 3104 3106 3108 3110 3112 3114 3116 3118 3120 3123 3125 3127 3130 3133 3135 3137 3138 3140 3142 3144
3063 3061 3060 3058 3056 3056 3055 3053 3051 3051 3053 3053 3052 3051 3051 3050 3050 3050 3051 3052 3052 3053 3053 3053 3053 3054 3053 3053 3054 3054 3054 3055 3056 3057 3057 3057 3059 3060 3060 3061 3062 3062 3061 3062 3063 3065 3066 3067 3068 3069 3070 3071 3072 3073 3075 3077 3078 3080 3082 3084 3085 3086 3088 3091 3094 3096 3099 3101 3103 3105 3107 3110 3112 3114 3116 3119 3121 3123 3126 3129 3131 3133 3135 3136 3138 3140
3063 3061 3059 3057 3055 3054 3053 3051 3050 3049 3048 3048 3049 3048 3047 3047 3046 3046 3047 3048 3049 3050 3050 3050 3050 3051 3050 3050 3051 3051 3052 3053 3055 3055 3055 3055 3056 3057 3058 3059 3059 3059 3057 3058 3059 3060 3062 3063 3064 3064 3065 3067 3068 3069 3071 3073 3074 3075 3077 3079 3081 3082 3083 3086 3089 3091 3093 3095 3097 3100 3102 3104 3107 3109 3111 3114 3116 3119 3123 3126 3128 3129 3131 3133 3135 3137
3062 3060 3058 3056 3054 3052 3051 3050 3049 3047 3045 3045 3045 3044 3044 3043 3043 3042 3043 3045 3045 3046 3047 3047 3047 3047 3047 3047 3048 3048 3050 3051 3053 3053 3053 3053 3054 3055 3056 3056 3057 3056 3054 3054 3056 3057 3058 3059 3060 3061 3061 3063 3064 3066 3067 3068 3070 3071 3072 3074 3076 3077 3078 3081 3084 3085 3087 3090 3092 3094 3097 3099 3101 3104 3107 3109 3112 3116 3120 3122 3124 3127 3129 3131 3133 3136